[[{"header":{"parameterUnit":"m.s-1","parameterCategory":1,"la1":30.2992,"la2":30.254,"lo1":-89.0895,"lo2":-89.0443,"dy":0.0025,"dx":0.0025,"nx":19,"ny":19,"refTime":"2026-04-04T09:00:00:Z","depth":0,"parameterNumber":2,"parameterNumberName":"U-component_of_WINDS"},"data":[0,0,0,-5.0577,-5.058,-5.0753,-5.0753,-5.0983,-5.0985,0,0,0,0,0,0,0,0,0,0,0,-5.0531,-5.0533,-5.0576,-5.0581,-5.0753,-5.0754,-5.0983,-5.0985,0,0,0,0,0,0,0,0,0,0,0,-5.053,-5.0532,-5.0534,-5.0581,-5.0753,-5.0754,-5.0982,-5.0849,0,0,0,0,0,0,0,0,0,0,-5.068,-5.0643,-5.0532,-5.0535,-5.0582,-5.0752,-5.0754,-5.0842,-5.0857,-5.0909,0,-5.0957,0,-5.0975,-5.1001,-5.1002,0,0,0,-5.0576,-5.0631,-5.0672,-5.0535,-5.0584,-5.0752,-5.0674,-5.0851,-5.0867,-5.0929,-5.096,-5.0968,-5.0979,-5.1003,-5.1004,-5.1318,-5.1319,0,0,-5.0567,-5.0565,-5.0661,-5.0684,-5.0658,-5.0668,-5.0679,-5.0861,-5.0894,-5.0961,-5.0973,-5.0982,-5.1004,-5.1006,-5.1316,-5.1318,0,0,0,-5.0542,-5.0558,-5.0595,-5.0675,-5.0705,-5.0674,-5.0686,-5.0886,-5.0898,-5.0976,-5.0985,-5.1006,-5.1009,-5.1314,-5.1317,-5.1396,0,0,0,-5.0536,-5.0544,-5.0591,-5.0592,-5.0702,-5.0798,-5.0708,-5.0886,-5.0906,-5.0984,-5.1006,-5.1011,-5.1312,-5.1316,-5.139,-5.1433,0,0,0,-5.0518,-5.0542,-5.0569,-5.0591,-5.0665,-5.0795,-5.0817,-5.089,-5.0912,-5.1002,-5.1012,-5.1311,-5.1315,-5.1384,-5.1424,-5.1514,0,0,0,-5.0497,-5.0637,-5.057,-5.073,-5.0664,-5.0843,-5.0816,-5.095,-5.1036,-5.1007,-5.1313,-5.1316,-5.1383,-5.1418,-5.1508,-5.1587,-5.1621,0,0,-5.0672,-5.0658,-5.0752,-5.0697,-5.0887,-5.0817,-5.1019,-5.1101,-5.1111,-5.1248,-5.1256,-5.1392,-5.1423,-5.1512,-5.1813,-5.184,0,0,0,-5.0807,-5.0874,-5.0925,-5.1008,-5.1074,-5.1134,-5.1185,-5.1216,-5.1332,-5.1181,-5.145,-5.1469,-5.1521,-5.1559,-5.1581,-5.1626,-5.1335,-5.1334,-5.1334,-5.1049,-5.1056,-5.1212,-5.124,-5.1321,-5.1373,-5.1439,-5.1489,-5.1472,-5.1536,-5.1575,-5.1757,-5.1801,-5.1818,-5.1865,-5.162,-5.162,-5.162,-5.1621,-5.1304,-5.14,-5.1376,-5.1518,-5.1525,-5.1645,-5.1701,-5.1685,-5.1798,-5.1727,-5.1774,-5.1694,-5.1847,-5.1888,-5.1627,-5.1626,-5.1625,-5.1624,-5.1624,-5.1461,-5.1508,-5.1544,-5.1665,-5.1758,-5.1782,-5.1892,-5.1894,-5.1898,-5.1944,-5.1986,-5.1984,-5.1982,-5.1964,-5.1965,-5.1966,-5.1966,-5.1967,-5.1967,-5.1609,-5.1647,-5.1738,-5.1822,-5.1876,-5.1948,-5.2003,-5.2056,-5.2116,-5.2109,-5.211,-5.2086,-5.1862,-5.1804,-5.1977,-5.1975,-5.1974,-5.1973,-5.1972,-5.186,-5.1805,-5.1946,-5.2,-5.2099,-5.2191,-5.2194,-5.2303,-5.2348,-5.2402,-5.2369,-5.2204,-5.2189,-5.2171,-5.2123,-5.2368,-5.2368,-5.2368,-5.2368,-5.1991,-5.1985,-5.213,-5.2217,-5.2303,-5.2321,-5.248,-5.2526,-5.2564,-5.2592,-5.2558,-5.2496,-5.2478,-5.2473,-5.2449,-5.2404,-5.2715,-5.2715,-5.2716,-5.2145,-5.2148,-5.2283,-5.232,-5.2398,-5.2465,-5.2615,-5.2715,-5.2747,-5.273,-5.2614,-5.2599,-5.2499,-5.2466,-5.2442,-5.2404,-5.2322,0,0]},{"header":{"parameterUnit":"m.s-1","parameterCategory":1,"la1":30.2992,"la2":30.254,"lo1":-89.0895,"lo2":-89.0443,"dy":0.0025,"dx":0.0025,"nx":19,"ny":19,"refTime":"2026-04-04T09:00:00:Z","depth":0,"parameterNumber":3,"parameterNumberName":"V-component_of_WINDS"},"data":[0,0,0,2.9722,2.9724,2.9787,2.9788,2.9871,2.9871,0,0,0,0,0,0,0,0,0,0,0,2.9705,2.9706,2.9722,2.9724,2.9787,2.9788,2.987,2.9871,0,0,0,0,0,0,0,0,0,0,0,2.9705,2.9706,2.9707,2.9724,2.9787,2.9788,2.987,2.9821,0,0,0,0,0,0,0,0,0,0,2.9759,2.9745,2.9706,2.9707,2.9725,2.9787,2.9788,2.9819,2.9825,2.9843,0,2.986,0,2.9867,2.9877,2.9877,0,0,0,2.9722,2.9741,2.9757,2.9707,2.9725,2.9787,2.9758,2.9822,2.9828,2.985,2.9862,2.9865,2.9869,2.9878,2.9878,2.9994,2.9994,0,0,2.9719,2.9717,2.9753,2.9761,2.9752,2.9756,2.976,2.9826,2.9838,2.9862,2.9866,2.987,2.9878,2.9879,2.9993,2.9994,0,0,0,2.971,2.9715,2.9729,2.9758,2.9769,2.9758,2.9763,2.9835,2.984,2.9867,2.9871,2.9879,2.988,2.9993,2.9993,3.0024,0,0,0,2.9708,2.971,2.9728,2.9727,2.9768,2.9803,2.977,2.9835,2.9842,2.9871,2.9879,2.9881,2.9992,2.9993,3.0022,3.0038,0,0,0,2.9701,2.9709,2.9719,2.9727,2.9755,2.9802,2.981,2.9837,2.9845,2.9877,2.9881,2.9991,2.9993,3.002,3.0035,3.0069,0,0,0,2.9692,2.9743,2.9719,2.9778,2.9754,2.9821,2.981,2.9859,2.9891,2.9879,2.9992,2.9993,3.0019,3.0033,3.0067,3.0098,3.0111,0,0,2.9755,2.975,2.9785,2.9766,2.9837,2.9811,2.9886,2.9915,2.9919,2.9968,2.9971,3.0022,3.0034,3.0069,3.0184,3.0194,0,0,0,2.9804,2.9829,2.9849,2.988,2.9905,2.9928,2.9947,2.9958,3.0001,2.9944,3.0044,3.0051,3.0072,3.0086,3.0095,3.0113,3.0,3.0,3.0,2.989,2.9895,2.9953,2.9966,2.9996,3.0017,3.0042,3.0061,3.0053,3.0078,3.0092,3.0161,3.0179,3.0185,3.0204,3.0109,3.0109,3.0109,3.0109,2.9983,3.002,3.0014,3.0068,3.0072,3.0117,3.014,3.0134,3.0177,3.015,3.0168,3.0138,3.0197,3.0213,3.0112,3.0111,3.0111,3.0111,3.011,3.004,3.0058,3.0073,3.0121,3.0158,3.0169,3.0212,3.0213,3.0215,3.0233,3.025,3.0249,3.0249,3.0241,3.0241,3.0242,3.0242,3.0242,3.0242,3.0092,3.0108,3.0145,3.0179,3.0201,3.023,3.0254,3.0275,3.0299,3.0297,3.0297,3.0289,3.0202,3.018,3.0246,3.0245,3.0245,3.0244,3.0244,3.0185,3.0165,3.0221,3.0244,3.0285,3.0323,3.0326,3.037,3.0388,3.0409,3.0399,3.0334,3.0328,3.0321,3.0303,3.0397,3.0397,3.0397,3.0397,3.0232,3.0231,3.0291,3.0327,3.0363,3.0372,3.0437,3.0456,3.0473,3.0485,3.0472,3.0448,3.0441,3.044,3.043,3.0413,3.0533,3.0533,3.0533,3.029,3.0293,3.0347,3.0365,3.0399,3.0428,3.0489,3.0531,3.0545,3.0539,3.0494,3.0488,3.045,3.0438,3.0429,3.0414,3.0383,0,0]}]]